Location: Austin
(30.3000°N, 97.7500°W)
Time: 23:39:23
(UTC-05:00)

NOSS 3-1 (C) - Pass Details

Date: 05 September 2024
Orbit: 651 x 1554 km, 63.4° (Epoch: 18 August)

Event Time Altitude Azimuth Distance (km) Brightness Sun altitude
Rises 20:01:20 0° 334° (NNW) 4,042 7.3 -3.7°
Reaches altitude 10° 20:03:54 10° 337° (NNW) 3,194 6.7 -4.2°
Maximum altitude 20:11:51 69° 60° (ENE) 1,491 4.3 -5.9°
Drops below altitude 10° 20:21:06 10° 143° (SE) 3,693 6.1 -7.9°
Sets 20:24:16 0° 145° (SE) 4,702 6.6 -8.5°
